Location: Unspecified
(0.0000°N, 0.0000°E)
Time: 15:29:48
(UTC+00:00)

STARLINK-36929 - Pass Details

Date: 04 March 2026
Orbit: 263 x 264 km, 53.2° (Epoch: 6 March)

Event Time Altitude Azimuth Distance (km) Brightness Sun altitude
Rises 19:01:07 0° 218° (SW) 1,831 6.0 -12.3°
Reaches altitude 10° 19:02:59 10° 221° (SW) 1,032 4.8 -12.8°
Maximum altitude 19:05:14 63° 303° (WNW) 290 1.4 -13.3°
Enters shadow 19:06:34 21° 21° (NNE) 653 2.8 -13.6°
